This demonstration page uses our WeatherBlox Daily Observations layout. Learn more.

39.29038, -76.61219

Hourly Observations for October 14, 2018

Temp ( °F °C ) Dew Point ( °F °C ) Humidity (%) Winds ( mph kmh ) Pressure ( in mb ) Visibility ( mi km ) Precip ( " mm )
12:54 am 00:54 undefined 50 10 40 4.4 68 68 undefined N/A 30.16 1022 N/A 0 0
1:54 am 01:54 undefined 50 10 39 3.9 66 66 undefined N/A 30.18 1022 N/A 0 0
2:54 am 02:54 undefined 50 10 39 3.9 66 66 undefined N/A 30.19 1022 N/A 0 0
3:54 am 03:54 undefined 50 10 39 3.9 66 66 undefined N/A 30.19 1022 N/A 0 0
4:54 am 04:54 undefined 50 10 40 4.4 68 68 undefined N/A 30.2 1023 N/A 0 0
5:54 am 05:54 undefined 50 10 40 4.4 68 68 undefined N/A 30.19 1022 N/A 0 0
6:54 am 06:54 undefined 50 10 41 5 71 71 undefined N/A 30.21 1023 N/A 0 0
7:54 am 07:54 undefined 50 10 41 5 71 71 undefined N/A 30.23 1024 N/A 0 0
8:54 am 08:54 undefined 53 11.7 42 5.6 66 66 undefined N/A 30.28 1026 N/A 0 0
9:54 am 09:54 undefined 54 12.2 41 5 62 62 undefined N/A 30.28 1025 N/A 0 0
10:54 am 10:54 undefined 55 12.8 43 6.1 64 64 undefined N/A 30.28 1026 N/A 0 0
11:54 am 11:54 undefined 55 12.8 46 7.8 72 72 undefined N/A 30.27 1025 N/A 0 0
12:54 pm 12:54 undefined 55 12.8 48 8.9 77 77 undefined N/A 30.26 1025 N/A 0.02 0.508
1:54 pm 13:54 undefined 56 13.3 47 8.3 72 72 undefined N/A 30.26 1025 N/A 0 0
2:54 pm 14:54 undefined 56 13.3 48 8.9 75 75 undefined N/A 30.24 1024 N/A 0 0
3:54 pm 15:54 undefined 57 13.9 48 8.9 72 72 undefined N/A 30.24 1024 N/A 0 0
4:54 pm 16:54 undefined 58 14.4 49 9.4 72 72 undefined N/A 30.21 1023 N/A 0 0
5:54 pm 17:54 undefined 58 14.4 49 9.4 72 72 undefined N/A 30.2 1023 N/A 0 0
6:54 pm 18:54 undefined 58 14.4 50 10 75 75 undefined N/A 30.22 1023 N/A 0 0
7:54 pm 19:54 undefined 58 14.4 50 10 75 75 undefined N/A 30.22 1023 N/A 0 0
8:54 pm 20:54 undefined 59 15 51 10.6 75 75 undefined N/A 30.21 1023 N/A 0 0
9:54 pm 21:54 undefined 59 15 51 10.6 75 75 undefined N/A 30.21 1023 N/A 0 0
10:54 pm 22:54 undefined 59 15 51 10.6 75 75 undefined N/A 30.21 1023 N/A 0 0
11:54 pm 23:54 undefined 59 15 52 11.1 78 78 undefined N/A 30.2 1023 N/A 0 0

Powered by AerisWeather